Location: Newark
(44.6028°N, 124.0883°W)
Time: 02:38:03
(UTC+00:00)

X-37B - Visible Passes

Search period start: 01 October 2020 00:00
Search period end: 11 October 2020 00:00
Orbit: 386 x 387 km, 45.0° (Epoch: 18 September)

Date Brightness Start Highest point End Pass type
(mag) Time Alt. Az. Time Alt. Az. Time Alt. Az.
02 Oct 3.0 03:47:06 10° SSW 03:47:57 16° SSW 03:47:57 16° SSW visible
03 Oct 2.4 02:49:19 10° S 02:51:27 17° SSE 02:52:22 15° SE visible
03 Oct 3.8 04:24:33 10° WSW 04:24:39 11° WSW 04:24:39 11° WSW visible
04 Oct 1.2 03:26:09 10° SW 03:28:57 42° S 03:28:57 42° S visible
05 Oct 1.8 02:27:58 10° SSW 02:30:43 27° SSE 02:33:09 12° E visible
05 Oct 2.7 04:03:56 10° WSW 04:05:26 25° WSW 04:05:26 25° WSW visible
06 Oct 0.6 03:05:25 10° WSW 03:08:33 63° SSE 03:09:32 38° E visible
07 Oct 1.4 03:43:23 10° W 03:45:52 50° W 03:45:52 50° W visible
08 Oct 0.5 02:44:48 10° WSW 02:48:00 84° SSE 02:49:52 22° E visible
08 Oct 3.7 04:21:28 10° W 04:22:08 15° W 04:22:08 15° W visible
09 Oct 0.5 03:22:52 10° W 03:26:04 80° N 03:26:07 79° NNE visible
10 Oct 0.6 02:24:16 10° W 02:27:26 83° N 02:30:05 14° E visible
10 Oct 3.0 04:00:56 10° W 04:02:21 24° W 04:02:21 24° W visible
